Regional Weather Roundup
Issued by NWS Green Bay, WI

Home | Current Version | Previous Version | Text Only | Print | Product List | Glossary On
Versions: 1 2 3 4 5 6 7 8 9 10 11 12 13 14 15 16 17 18 19 20 21 22 23 24 25 26 27 28 29 30 31 32 33 34 35 36 37 38 39 40 41 42 43 44 45 46 47 48 49 50
602
ASUS43 KGRB 211811
RWRGRB

NORTH-CENTRAL AND NORTHEAST WISCONSIN REGIONAL WEATHER ROUNDUP
NATIONAL WEATHER SERVICE GREEN BAY WI
100 PM CDT MON AUG 21 2017

WIZ005-009-010>012-018-019-211900-
NORTH CENTRAL WISCONSIN

CITY           SKY/WX    TMP DP  RH WIND       PRES   REMARKS
IRONWOOD       MOSUNNY   73  51  46 W5        30.00F
MANITOWISH WTR SUNNY     73  56  55 CALM      30.00F
ARBOR VITAE    CLOUDY    74  60  61 S3        30.00F
EAGLE RIVER    SUNNY     74  56  53 E5        30.01F
LAND O LAKES   SUNNY     75  49  39 CALM      30.03F
RHINELANDER    MOSUNNY   75  64  68 SE8       30.02F
PHILLIPS       CLOUDY    75  64  67 S7        30.00S
ANTIGO         CLOUDY    72  65  77 SE8       30.02F
TOMAHAWK         N/A     73  64  73 SE3       30.01F
MERRILL        CLOUDY    73  66  78 E3        30.00F
$$

WIZ013-073-211900-
NORTHEAST WISCONSIN

CITY           SKY/WX    TMP DP  RH WIND       PRES   REMARKS
IRON MOUNTAIN  CLOUDY    77  58  51 SE5       30.00F
MARINETTE      PTSUNNY   74  60  61 E5        30.02F
OCONTO         PTSUNNY   74  68  80 SE5       30.01S
$$

WIZ017-030-035>037-045-211900-
CENTRAL WISCONSIN

CITY           SKY/WX    TMP DP  RH WIND       PRES   REMARKS
MEDFORD        SUNNY     72  66  81 CALM      30.00F
WAUSAU         CLOUDY    76  67  73 SE7       29.97F
MOSINEE        MOSUNNY   75  70  83 E6        30.00F
MARSHFIELD     CLOUDY    78  68  71 SE7       29.97F
WISC RAPIDS    CLOUDY    80  68  66 S8        29.98F
STEVENS POINT  MOSUNNY   76  69  77 SE9       29.98F
WAUPACA        CLOUDY    81  70  69 SE6       29.99F
SHAWANO        PTSUNNY   78  69  74 NE3       30.01F
CLINTONVILLE   MOSUNNY   79  66  65 S7        30.00F
WAUTOMA        MOSUNNY   78  70  76 SE7       29.99F
$$

WIZ038-039-048-051-211900-
FOX VALLEY

CITY           SKY/WX    TMP DP  RH WIND       PRES   REMARKS
NWS GREEN BAY  SUNNY     78  71  79 S6        30.01F
APPLETON       PTSUNNY   77  64  65 SW5       30.01F
OSHKOSH        CLOUDY    76  67  73 E6        29.98F
FOND DU LAC    CLOUDY    76  65  68 SE6       30.01F
$$

WIZ022-050-052-211900-
EAST CENTRAL WISCONSIN

CITY           SKY/WX    TMP DP  RH WIND       PRES   REMARKS
EPHRAIM        FAIR      73  65  77 CALM      30.01S
WASHINGTON ISL FAIR      73  65  77 CALM      30.00F
STURGEON BAY   PTSUNNY   76  72  87 CALM      30.02F
MANITOWOC        N/A    N/A N/A N/A MISG        N/A
SHEBOYGAN      CLOUDY    77  69  76 CALM      30.03F
$$

LMZ563-521-522-541>543-211900-
LAKESHORE

STATION/POSITION TIME  TEMP    WIND        PRES    VSBY  WAVE
                       AIR SEA DIR/SP/G                  HT/PER
                 (UTC) (F)     (DEG/KT/KT) (MB)    (MI)  (FT/S)
SHEBOYGAN LKSHOR 1800   72     150/  9/ 10 1016.2F
KEWAUNEE LKSHORE 1748   70     180/  5/  7 1016.1F
NORTHPORT PIER   1740   72      90/  3/  3 1015.9F
N MID LAKE BUOY  1750   70 70  200/  2/  2 1016.7F         1/ 4
S GREEN BAY BUOY 1800   72 73  210/  8/  8 1016.1
SISTER BAY LKSHO 1803   74     130/  6/  9   N/A
MENOMINEE LKSHOR 1748   71     130/  3/  4 1015.9F
$$




USA.gov is the U.S. government's official web portal to all federal, state and local government web resources and services.